Location: Unspecified
(0.0000°N, 0.0000°E)
Time: 03:11:15
(UTC+00:00)

AAUSAT CUBESAT 2 - Visible Passes

Search period start: 19 June 2024 00:00
Search period end: 29 June 2024 00:00
Orbit: 508 x 518 km, 97.6° (Epoch: 18 June)

Date Brightness Start Highest point End Pass type
(mag) Time Alt. Az. Time Alt. Az. Time Alt. Az.
19 Jun ? 04:24:47 10° N 04:27:30 40° NW 04:27:30 40° NW visible
20 Jun ? 04:09:01 10° NNE 04:11:39 45° NNE 04:11:39 45° NNE visible
21 Jun ? 03:53:30 10° NNE 03:55:45 31° NE 03:55:45 31° NE visible
22 Jun ? 03:38:17 10° NE 03:39:49 19° ENE 03:39:49 19° ENE visible
23 Jun ? 03:23:37 10° ENE 03:23:51 11° ENE 03:23:51 11° ENE visible
23 Jun ? 04:56:58 10° NW 04:58:47 16° WNW 04:58:47 16° WNW visible
24 Jun ? 04:40:19 10° NNW 04:42:46 26° WNW 04:42:46 26° WNW visible
25 Jun ? 04:24:05 10° N 04:26:43 39° NNW 04:26:43 39° NNW visible
26 Jun ? 04:08:07 10° NNE 04:10:39 41° NNE 04:10:39 41° NNE visible
27 Jun ? 03:52:25 10° NNE 03:54:31 28° NE 03:54:31 28° NE visible
28 Jun ? 03:37:02 10° NE 03:38:21 17° ENE 03:38:21 17° ENE visible
